[[{"header":{"parameterUnit":"m.s-1","parameterCategory":2,"la1":30.2991,"la2":30.254,"lo1":-89.0895,"lo2":-89.0444,"dy":0.0017,"dx":0.0017,"nx":28,"ny":28,"refTime":"2025-03-01T03:00:00:Z","depth":"0","parameterNumber":2,"parameterNumberName":"U-component_of_CURRENTS"},"data":[0,0,0,0,0,0,0,0,0,0,0,0,0,0,0,0,0,0,0,0,0,0,0,0,0,0,0,0,0,0,0,0,0,0,0,0,0,0,0,0,0,0,0,0,0,0,0,0,0,0,0,0,0,0,0,0,0,0,0.1866,0.1866,0,0.184,0.184,0.1839,0.1818,0.1818,0.1818,0.1818,0.1795,0.1794,0.1793,0,0,0,0,0,0,0,0,0,0,0,0,0,0.1817,0.1818,0.1866,0.1866,0.1866,0.184,0.184,0.1839,0.1818,0.1818,0.1818,0.1818,0.1795,0.1794,0.1793,0,0,0,0,0,0,0,0,0,0,0,0,0,0.1816,0.1819,0.1866,0.1855,0.1855,0.1841,0.184,0.1839,0.1818,0.1818,0.1818,0.1818,0.1795,0.1794,0.1793,0.178,0,0,0.1789,0.1789,0,0,0,0,0,0,0,0,0.1816,0.1817,0.1857,0.1856,0.1855,0.1836,0.1814,0.1821,0.1818,0.1827,0.1818,0.1819,0.1812,0.1809,0.1797,0.1779,0.1778,0.1789,0.1789,0.1788,0.1788,0,0,0,0,0,0,0,0.1816,0.1818,0.1851,0.1857,0.1856,0.1826,0.1826,0.1815,0.1815,0.1826,0.1826,0.183,0.181,0.1798,0.1797,0.1778,0.1789,0.1788,0.1787,0.1787,0.1784,0.1785,0,0,0,0,0,0,0.1832,0.1818,0.1852,0.1851,0.1841,0.1827,0.1827,0.1838,0.1815,0.1813,0.183,0.1829,0.18,0.1798,0.1796,0.1811,0.1788,0.1787,0.1786,0.1783,0.1784,0.1785,0,0,0,0,0,0,0.1832,0.1836,0.1853,0.1837,0.1837,0.1829,0.1841,0.1838,0.1832,0.1818,0.1815,0.1829,0.18,0.1798,0.1789,0.1809,0.1786,0.1785,0.1783,0.1784,0.1784,0.1821,0,0,0,0,0,0,0.183,0.1836,0.184,0.1838,0.1839,0.185,0.1841,0.1837,0.1836,0.1835,0.1816,0.1814,0.18,0.1791,0.1788,0.1807,0.1784,0.1782,0.1783,0.1784,0.1819,0.1823,0.1826,0,0,0,0,0,0.1829,0.1837,0.184,0.1844,0.1849,0.1851,0.1848,0.1838,0.1836,0.1834,0.1821,0.1815,0.1797,0.179,0.1787,0.1805,0.1781,0.1783,0.1784,0.1817,0.1822,0.1826,0,0,0,0,0,0,0.182,0.1836,0.184,0.1853,0.1856,0.1849,0.1845,0.1843,0.1829,0.1829,0.1813,0.181,0.1815,0.1802,0.1795,0.1809,0.1792,0.1793,0.1818,0.1823,0.1827,0.1844,0.1783,0,0,0,0,0,0.1822,0.183,0.1842,0.1852,0.1856,0.1852,0.1849,0.1848,0.1841,0.1835,0.1824,0.1816,0.1816,0.1812,0.1806,0.1805,0.1841,0.1818,0.1822,0.1825,0.1838,0.1873,0.1882,0.1789,0.1789,0.1789,0,0,0.1819,0.1831,0.1834,0.185,0.1849,0.1857,0.1849,0.1853,0.1861,0.1835,0.1835,0.1827,0.1819,0.1823,0.1825,0.1815,0.1884,0.1827,0.183,0.1841,0.1876,0.1885,0.1893,0.179,0.179,0.179,0,0,0.1818,0.1833,0.1837,0.1845,0.1856,0.1859,0.1865,0.1865,0.1866,0.1864,0.1857,0.1862,0.1846,0.1853,0.1854,0.1875,0.1904,0.1872,0.1902,0.1936,0.1944,0.1952,0.2071,0.2088,0.1872,0.1872,0.1872,0,0.1811,0.1829,0.1837,0.1847,0.1858,0.1865,0.1876,0.188,0.1876,0.1882,0.187,0.1873,0.1867,0.1889,0.1899,0.1886,0.1932,0.1885,0.1942,0.195,0.1957,0.2076,0.2095,0.1874,0.1873,0.1873,0.1873,0,0.1816,0.1831,0.1837,0.1858,0.1868,0.188,0.1897,0.1905,0.1909,0.1911,0.1929,0.192,0.1926,0.1928,0.1919,0.1966,0.1998,0.1945,0.1933,0.1969,0.2093,0.2112,0.1876,0.1876,0.1875,0.1875,0,0,0.1801,0.1832,0.1835,0.1853,0.1878,0.1891,0.1913,0.1936,0.1957,0.1954,0.1982,0.1987,0.1987,0.1989,0.1985,0.2013,0.2124,0.2002,0.2003,0.2128,0.2269,0.2309,0.2335,0.207,0.2072,0.2074,0.2359,0,0.1803,0.1828,0.1842,0.1872,0.1893,0.1913,0.1935,0.1958,0.1974,0.2001,0.2012,0.2029,0.201,0.2019,0.2047,0.2091,0.2165,0.2056,0.2209,0.2217,0.2251,0.2353,0.2286,0.2533,0.2378,0.2381,0.2383,0,0.1807,0.1827,0.1855,0.1897,0.1907,0.1923,0.1971,0.1991,0.2031,0.2043,0.2066,0.2074,0.2136,0.2096,0.223,0.2159,0.2233,0.2271,0.2281,0.2314,0.2289,0.2458,0.2573,0.2455,0.2413,0.241,0.2408,0,0.1811,0.1841,0.1867,0.1881,0.1923,0.1941,0.1962,0.2001,0.2034,0.2075,0.2115,0.2155,0.2217,0.2267,0.2371,0.23,0.2537,0.2443,0.2572,0.258,0.2552,0.2552,0.2569,0.256,0.2559,0.2559,0.2558,0,0.1826,0.1853,0.187,0.1891,0.1924,0.1948,0.1989,0.2015,0.2067,0.2132,0.2141,0.222,0.2257,0.2386,0.2434,0.2607,0.2605,0.2629,0.2652,0.257,0.2568,0.2484,0.2418,0.2569,0.2567,0.2565,0.2563,0,0.1856,0.1861,0.1898,0.1927,0.1933,0.1962,0.201,0.2057,0.2095,0.219,0.2212,0.2317,0.2483,0.2573,0.2714,0.2733,0.2782,0.2913,0.2867,0.2876,0.2811,0.2751,0.2763,0.2684,0.3083,0.3085,0.3087,0,0.1886,0.1903,0.1922,0.1944,0.1962,0.1996,0.2036,0.2068,0.2132,0.2262,0.2335,0.2506,0.2632,0.2888,0.2957,0.3109,0.295,0.3124,0.2943,0.2847,0.2797,0.2644,0.2562,0.2965,0.2967,0.2967,0.2968,0,0.1949,0.1945,0.197,0.1997,0.2034,0.2065,0.2124,0.2162,0.2238,0.2322,0.2468,0.2563,0.2827,0.2934,0.3134,0.319,0.2945,0.3145,0.3027,0.2713,0.2566,0.2486,0.2798,0.2976,0.2975,0.2974,0.2974,0.2974,0.1996,0.2016,0.2029,0.2057,0.2096,0.2127,0.2137,0.2217,0.2288,0.2394,0.2525,0.2651,0.2834,0.308,0.3134,0.3128,0.3053,0.3009,0.2966,0.2836,0.2669,0.3048,0.3233,0.3234,0.3235,0.3235,0.3236,0,0.2036,0.205,0.2092,0.2103,0.2139,0.2145,0.2199,0.22,0.2264,0.2406,0.2509,0.2663,0.2804,0.2922,0.3004,0.2924,0.2772,0.2841,0.2567,0.2507,0.2849,0.2745,0.2852,0.2852,0.2852,0.2852,0.2852,0.2852,0.2054,0.2081,0.2088,0.2125,0.214,0.214,0.2147,0.2158,0.2224,0.2289,0.2361,0.2449,0.2605,0.2765,0.2735,0.2691,0.2431,0.2398,0.2334,0.2521,0.2529,0.2537,0.242,0.2456,0.2456,0.1883,0.1879,0.1875]},{"header":{"parameterUnit":"m.s-1","parameterCategory":2,"la1":30.2991,"la2":30.254,"lo1":-89.0895,"lo2":-89.0444,"dy":0.0017,"dx":0.0017,"nx":28,"ny":28,"refTime":"2025-03-01T03:00:00:Z","depth":"0","parameterNumber":3,"parameterNumberName":"V-component_of_CURRENTS"},"data":[0,0,0,0,0,0,0,0,0,0,0,0,0,0,0,0,0,0,0,0,0,0,0,0,0,0,0,0,0,0,0,0,0,0,0,0,0,0,0,0,0,0,0,0,0,0,0,0,0,0,0,0,0,0,0,0,0,0,0.0391,0.0391,0,0.0325,0.0324,0.0323,0.0287,0.0287,0.0287,0.0287,0.0224,0.0222,0.022,0,0,0,0,0,0,0,0,0,0,0,0,0,0.0432,0.0431,0.0391,0.0391,0.039,0.0325,0.0324,0.0323,0.0287,0.0287,0.0287,0.0287,0.0224,0.0222,0.022,0,0,0,0,0,0,0,0,0,0,0,0,0,0.0393,0.0431,0.0392,0.0365,0.0362,0.0325,0.0324,0.0322,0.0287,0.0287,0.0287,0.0287,0.0225,0.0223,0.022,0.0202,0,0,0.0212,0.0211,0,0,0,0,0,0,0,0,0.0396,0.0392,0.037,0.0367,0.0364,0.0315,0.0315,0.0283,0.0287,0.0314,0.0287,0.0287,0.0256,0.0251,0.0236,0.0199,0.0197,0.0212,0.021,0.0209,0.0208,0,0,0,0,0,0,0,0.0398,0.0394,0.0363,0.0369,0.0365,0.0338,0.0333,0.0308,0.0284,0.0311,0.0309,0.0304,0.0254,0.0238,0.0234,0.0196,0.0212,0.021,0.0208,0.0207,0.0112,0.0111,0,0,0,0,0,0,0.0412,0.0397,0.0366,0.0362,0.0382,0.0337,0.0332,0.033,0.0284,0.0278,0.0304,0.0303,0.0243,0.0237,0.0232,0.0203,0.0209,0.0207,0.0205,0.0113,0.0111,0.011,0,0,0,0,0,0,0.0414,0.041,0.0368,0.0379,0.0372,0.0337,0.0335,0.0328,0.0315,0.0279,0.0272,0.0298,0.0242,0.0235,0.0201,0.02,0.0206,0.0203,0.0114,0.0112,0.0111,0.0148,0,0,0,0,0,0,0.0415,0.0411,0.0413,0.038,0.0372,0.0351,0.0335,0.0327,0.0312,0.031,0.0271,0.0265,0.0242,0.0205,0.0198,0.0197,0.0201,0.0115,0.0113,0.0111,0.0148,0.0148,0.0148,0,0,0,0,0,0.0417,0.0422,0.0414,0.041,0.0376,0.0352,0.0345,0.0319,0.0312,0.0307,0.0273,0.0267,0.0189,0.0202,0.0195,0.0192,0.0116,0.0114,0.0111,0.0148,0.0148,0.0148,0,0,0,0,0,0,0.0442,0.0417,0.0409,0.0406,0.0384,0.0346,0.0339,0.0323,0.0291,0.0289,0.0255,0.0246,0.0216,0.0193,0.0209,0.0156,0.0151,0.0147,0.0181,0.0181,0.0181,0.019,0.0199,0,0,0,0,0,0.045,0.0445,0.0417,0.0415,0.0406,0.0374,0.0361,0.0344,0.0313,0.0299,0.0271,0.0235,0.0199,0.0183,0.0151,0.0124,0.0113,0.0115,0.0115,0.0116,0.0115,0.0073,0.007,0.0103,0.0103,0.0103,0,0,0.0458,0.0445,0.0441,0.042,0.04,0.0385,0.0366,0.035,0.0334,0.0297,0.0269,0.0237,0.0191,0.0158,0.0143,0.0142,0.0107,0.0113,0.0114,0.0113,0.0071,0.0068,0.0065,0.0101,0.0102,0.0102,0,0,0.0469,0.0462,0.0458,0.0442,0.0418,0.0397,0.0395,0.0361,0.0344,0.0312,0.0278,0.0243,0.0196,0.0159,0.0135,0.0114,0.0108,0.0105,0.0115,0.0074,0.0072,0.0069,0.0089,0.0088,0.0105,0.0105,0.0105,0,0.0479,0.0471,0.0454,0.0445,0.0431,0.0405,0.0395,0.0373,0.0331,0.0312,0.0309,0.0223,0.0194,0.0142,0.0134,0.0116,0.011,0.0124,0.0077,0.0074,0.007,0.0091,0.0089,0.0107,0.0107,0.0107,0.0106,0,0.0481,0.0475,0.0473,0.0452,0.0437,0.0425,0.0396,0.0379,0.0359,0.0331,0.0283,0.0236,0.0184,0.017,0.0148,0.0106,0.0117,0.0085,0.0085,0.007,0.0092,0.009,0.0109,0.0109,0.0108,0.0108,0,0,0.0499,0.0477,0.0476,0.0466,0.0439,0.0426,0.0405,0.0371,0.0356,0.0316,0.0292,0.0226,0.0203,0.0173,0.0139,0.0107,0.0097,0.0092,0.0089,0.0127,0.0051,0.0096,0.0098,0.0054,0.0053,0.0052,0.0091,0,0.0502,0.0492,0.0476,0.0462,0.0453,0.0425,0.0408,0.0376,0.035,0.0324,0.0273,0.0238,0.0203,0.0187,0.0144,0.011,0.0085,0.0092,0.0045,0.0045,0.0098,0.0094,0.0085,0.012,0.0088,0.0088,0.0088,0,0.0507,0.0498,0.0491,0.0464,0.0458,0.0448,0.0416,0.0396,0.0354,0.0335,0.029,0.0257,0.0214,0.0184,0.0117,0.0124,0.0087,0.0061,0.0061,0.0084,0.0084,0.0119,0.0117,-0.0055,0.0084,0.0084,0.0084,0,0.0532,0.0506,0.0503,0.0495,0.0465,0.0455,0.0436,0.04,0.04,0.035,0.0366,0.0278,0.0286,0.0193,0.0165,0.0128,0.0117,0.0053,0.006,0.0066,0.0039,0.0044,-0.0127,-0.0012,-0.0012,-0.0012,-0.0013,0,0.0548,0.0546,0.0516,0.0517,0.051,0.0477,0.0473,0.0444,0.0433,0.0468,0.0381,0.0422,0.0288,0.0278,0.0191,0.0159,0.0137,0.0071,0.0067,0.0057,0.0062,-0.0104,-0.0185,-0.0011,-0.0011,-0.0012,-0.0012,0,0.0596,0.0572,0.057,0.0538,0.0529,0.053,0.0525,0.0539,0.0514,0.0568,0.0569,0.0549,0.0545,0.0442,0.0344,0.0242,0.0093,0.0156,0.0194,0.0192,-0.0005,-0.0081,-0.0194,-0.0252,0.0135,0.0136,0.0137,0,0.0629,0.0631,0.0604,0.0615,0.0609,0.0603,0.062,0.0586,0.0628,0.0679,0.0739,0.0747,0.0803,0.0692,0.0497,0.0357,0.0193,0.0231,0.0127,-0.001,-0.0099,-0.0151,-0.0196,0.0125,0.0125,0.0126,0.0127,0,0.0696,0.0685,0.0686,0.07,0.0718,0.0733,0.0762,0.0809,0.082,0.0887,0.1013,0.106,0.0974,0.0851,0.0644,0.05,0.0109,0.024,0.0054,-0.0153,-0.0179,-0.0237,0.0136,0.0132,0.0132,0.0131,0.0131,0.0131,0.0758,0.0775,0.0776,0.0791,0.0821,0.088,0.0916,0.0991,0.1083,0.1217,0.125,0.1365,0.1116,0.0838,0.0628,0.0173,0.0184,0.0002,-0.0079,-0.0118,-0.0192,0.0236,0.0248,0.0249,0.0249,0.0249,0.0249,0,0.082,0.0835,0.0868,0.0893,0.0949,0.0935,0.1028,0.1093,0.1243,0.1404,0.1524,0.148,0.116,0.0781,0.0202,-0.0106,-0.0253,-0.0292,-0.0427,-0.0461,-0.0131,-0.0155,-0.0176,-0.0175,-0.0175,-0.0175,-0.0175,-0.0175,0.0858,0.0893,0.0899,0.0993,0.1026,0.1103,0.1161,0.1283,0.1407,0.1609,0.1705,0.1764,0.1428,0.0397,-0.0323,-0.0484,-0.073,-0.0739,-0.0842,-0.0697,-0.0678,-0.0661,-0.0707,-0.0843,-0.0844,-0.1159,-0.1162,-0.1165]}],[{"header":{"parameterUnit":"m.s-1","parameterCategory":2,"la1":30.2991,"la2":30.254,"lo1":-89.0895,"lo2":-89.0444,"dy":0.0017,"dx":0.0017,"nx":28,"ny":28,"refTime":"2025-03-01T03:00:00:Z","depth":"2","parameterNumber":2,"parameterNumberName":"U-component_of_CURRENTS"},"data":[0,0,0,0,0,0,0,0,0,0,0,0,0,0,0,0,0,0,0,0,0,0,0,0,0,0,0,0,0,0,0,0,0,0,0,0,0,0,0,0,0,0,0,0,0,0,0,0,0,0,0,0,0,0,0,0,0,0,0.1207,0.1207,0,0.1202,0.1202,0.1202,0.1213,0.1214,0.1214,0.1215,0.1195,0.1195,0.1194,0,0,0,0,0,0,0,0,0,0,0,0,0,0.1184,0.1184,0.1207,0.1207,0.1207,0.1202,0.1202,0.1202,0.1213,0.1214,0.1214,0.1215,0.1196,0.1195,0.1194,0,0,0,0,0,0,0,0,0,0,0,0,0,0.1187,0.1184,0.1207,0.1213,0.1213,0.1202,0.1202,0.1201,0.1213,0.1214,0.1214,0.1215,0.1196,0.1195,0.1193,0.1171,0,0,0.1189,0.1189,0,0,0,0,0,0,0,0,0.1187,0.1188,0.1212,0.1212,0.1213,0.121,0.1186,0.1191,0.1213,0.1212,0.1215,0.1215,0.1199,0.1197,0.1194,0.117,0.117,0.1189,0.1188,0.1188,0.1187,0,0,0,0,0,0,0,0.1187,0.1188,0.1204,0.1212,0.1213,0.1201,0.1202,0.1187,0.1201,0.1212,0.1213,0.1214,0.1199,0.1195,0.1193,0.1169,0.1189,0.1188,0.1187,0.1186,0.1176,0.1176,0,0,0,0,0,0,0.119,0.1188,0.1204,0.1204,0.1202,0.1201,0.1203,0.1209,0.1202,0.1201,0.1213,0.1214,0.1197,0.1195,0.1193,0.1216,0.1188,0.1186,0.1185,0.1175,0.1176,0.1176,0,0,0,0,0,0,0.119,0.1192,0.1205,0.1196,0.1197,0.1201,0.1208,0.1209,0.1217,0.1203,0.1202,0.1222,0.1198,0.1195,0.1199,0.1214,0.1186,0.1184,0.1174,0.1175,0.1176,0.1231,0,0,0,0,0,0,0.119,0.1192,0.1201,0.1197,0.1198,0.1207,0.1208,0.1208,0.1216,0.1218,0.121,0.1208,0.1198,0.1201,0.1197,0.1211,0.1183,0.1174,0.1175,0.1176,0.1228,0.1233,0.1238,0,0,0,0,0,0.1189,0.1194,0.1201,0.1203,0.1208,0.1207,0.1207,0.1211,0.1216,0.122,0.1223,0.1209,0.1205,0.12,0.1196,0.121,0.1173,0.1174,0.1176,0.1226,0.1232,0.1238,0,0,0,0,0,0,0.1184,0.1196,0.1203,0.1212,0.1215,0.121,0.1215,0.1216,0.122,0.1226,0.1214,0.1213,0.1222,0.1206,0.1201,0.1209,0.1187,0.1187,0.1227,0.1232,0.1237,0.1246,0.1182,0,0,0,0,0,0.1188,0.12,0.1205,0.1212,0.1218,0.1218,0.122,0.1222,0.1224,0.1227,0.1227,0.1223,0.122,0.122,0.1213,0.1214,0.1241,0.122,0.1224,0.1229,0.1233,0.1267,0.1276,0.118,0.118,0.118,0,0,0.1187,0.1196,0.1201,0.1213,0.1217,0.1227,0.1221,0.1228,0.1239,0.1222,0.1244,0.1239,0.1224,0.1233,0.1235,0.1224,0.1283,0.123,0.1234,0.1236,0.1269,0.1279,0.1287,0.1181,0.1181,0.1181,0,0,0.1188,0.1202,0.1214,0.1221,0.1232,0.1234,0.124,0.1247,0.1257,0.127,0.1266,0.1272,0.1268,0.1264,0.1259,0.1282,0.1306,0.1282,0.1313,0.1347,0.1355,0.1363,0.1469,0.1486,0.1284,0.1284,0.1284,0,0.1187,0.1206,0.1214,0.1228,0.1237,0.1242,0.1255,0.1263,0.1272,0.1283,0.1286,0.1295,0.1282,0.1291,0.1305,0.1292,0.1344,0.1295,0.1355,0.1362,0.1369,0.1476,0.1493,0.1287,0.1286,0.1286,0.1286,0,0.12,0.1216,0.1223,0.1248,0.1257,0.1267,0.1282,0.1299,0.1314,0.1322,0.1345,0.1338,0.1345,0.1342,0.1332,0.137,0.1407,0.136,0.1345,0.1383,0.1493,0.151,0.1291,0.129,0.1289,0.1288,0,0,0.1196,0.1227,0.123,0.1246,0.127,0.1276,0.1305,0.1327,0.1353,0.1367,0.14,0.1397,0.1403,0.1398,0.1389,0.1415,0.1524,0.1418,0.1418,0.1533,0.1672,0.1615,0.1629,0.1494,0.1496,0.1497,0.1753,0,0.1207,0.123,0.1246,0.1272,0.1287,0.1307,0.1332,0.1354,0.1381,0.1417,0.1418,0.1446,0.1422,0.144,0.1461,0.1504,0.1563,0.1464,0.1609,0.1615,0.1565,0.1643,0.1481,0.1684,0.177,0.1773,0.1775,0,0.122,0.1235,0.1259,0.1291,0.1301,0.1321,0.1368,0.1391,0.1436,0.1461,0.1489,0.1503,0.1557,0.1517,0.1636,0.1584,0.164,0.1671,0.1681,0.1612,0.1586,0.1646,0.1713,0.1803,0.1801,0.1799,0.1797,0,0.1216,0.1245,0.1265,0.1276,0.1313,0.1336,0.1361,0.1407,0.1439,0.15,0.1543,0.1591,0.1646,0.1698,0.1778,0.1725,0.1923,0.1849,0.1864,0.1865,0.1744,0.1728,0.1936,0.1936,0.1935,0.1934,0.1934,0,0.1222,0.1238,0.1268,0.128,0.1311,0.134,0.1386,0.1419,0.1482,0.1533,0.157,0.1635,0.1692,0.1801,0.1842,0.1938,0.1988,0.1902,0.1916,0.1763,0.1747,0.1834,0.1818,0.1944,0.1942,0.194,0.1938,0,0.1212,0.1233,0.1257,0.1296,0.1311,0.1335,0.1398,0.1431,0.1502,0.1577,0.1609,0.1719,0.186,0.194,0.2067,0.2036,0.2114,0.2133,0.199,0.1978,0.2031,0.2015,0.2178,0.2178,0.2177,0.2177,0.2177,0,0.1205,0.1215,0.1258,0.1271,0.1292,0.1332,0.136,0.143,0.1474,0.1627,0.1666,0.1834,0.1915,0.2104,0.2107,0.2201,0.2208,0.2082,0.1895,0.2053,0.2052,0.2036,0.2021,0.1811,0.1808,0.1806,0.1804,0,0.118,0.12,0.1213,0.1247,0.1278,0.1311,0.1365,0.1404,0.1503,0.1587,0.1726,0.1811,0.1973,0.1973,0.207,0.2078,0.2037,0.2029,0.2259,0.1736,0.1716,0.1711,0.1707,0.1781,0.1784,0.1785,0.1787,0.1787,0.1151,0.1155,0.1177,0.1204,0.1241,0.1281,0.1292,0.1365,0.1442,0.1529,0.1668,0.174,0.1804,0.184,0.1845,0.1848,0.1951,0.1848,0.1852,0.1861,0.1733,0.1708,0.1756,0.1758,0.176,0.1762,0.1763,0,0.1096,0.1111,0.113,0.116,0.1175,0.1228,0.128,0.1271,0.1336,0.1441,0.1521,0.1455,0.149,0.1584,0.1542,0.1544,0.1496,0.1493,0.1412,0.1437,0.1459,0.1305,0.1219,0.1217,0.1215,0.1214,0,0,0.1067,0.1056,0.1068,0.1074,0.1109,0.1113,0.1132,0.1143,0.1191,0.1197,0.1239,0.1355,0.15,0.1312,0.1314,0.1262,0.1327,0.1217,0.1658,0.1585,0.1603,0.1676,0.147,0,0,0,0,0]},{"header":{"parameterUnit":"m.s-1","parameterCategory":2,"la1":30.2991,"la2":30.254,"lo1":-89.0895,"lo2":-89.0444,"dy":0.0017,"dx":0.0017,"nx":28,"ny":28,"refTime":"2025-03-01T03:00:00:Z","depth":"2","parameterNumber":3,"parameterNumberName":"V-component_of_CURRENTS"},"data":[0,0,0,0,0,0,0,0,0,0,0,0,0,0,0,0,0,0,0,0,0,0,0,0,0,0,0,0,0,0,0,0,0,0,0,0,0,0,0,0,0,0,0,0,0,0,0,0,0,0,0,0,0,0,0,0,0,0,-0.0193,-0.0193,0,-0.0218,-0.0218,-0.0218,-0.0206,-0.0206,-0.0206,-0.0206,-0.0247,-0.0249,-0.025,0,0,0,0,0,0,0,0,0,0,0,0,0,-0.0161,-0.0161,-0.0193,-0.0194,-0.0194,-0.0218,-0.0218,-0.0218,-0.0206,-0.0206,-0.0206,-0.0206,-0.0247,-0.0248,-0.025,0,0,0,0,0,0,0,0,0,0,0,0,0,-0.0175,-0.0161,-0.0193,-0.0194,-0.0195,-0.0218,-0.0218,-0.0218,-0.0207,-0.0206,-0.0206,-0.0205,-0.0246,-0.0248,-0.025,-0.0271,0,0,-0.0257,-0.0257,0,0,0,0,0,0,0,0,-0.0175,-0.0176,-0.0193,-0.0194,-0.0195,-0.0212,-0.0222,-0.0238,-0.0207,-0.0198,-0.0206,-0.0205,-0.024,-0.0242,-0.0242,-0.0273,-0.0275,-0.0257,-0.0258,-0.0259,-0.0259,0,0,0,0,0,0,0,-0.0173,-0.0175,-0.0199,-0.0194,-0.0195,-0.0203,-0.0204,-0.0225,-0.0218,-0.0199,-0.0199,-0.0208,-0.024,-0.024,-0.0243,-0.0276,-0.0257,-0.0259,-0.026,-0.0261,-0.0306,-0.0306,0,0,0,0,0,0,-0.0177,-0.0174,-0.0198,-0.02,-0.0188,-0.0204,-0.0205,-0.0204,-0.0218,-0.022,-0.0208,-0.0208,-0.0237,-0.0241,-0.0245,-0.025,-0.0259,-0.0261,-0.0262,-0.0306,-0.0306,-0.0306,0,0,0,0,0,0,-0.0176,-0.0179,-0.0197,-0.0191,-0.0195,-0.0205,-0.0204,-0.0205,-0.0199,-0.0226,-0.0228,-0.0202,-0.0237,-0.0242,-0.0257,-0.0253,-0.0262,-0.0264,-0.0306,-0.0306,-0.0306,-0.0274,0,0,0,0,0,0,-0.0175,-0.0178,-0.0173,-0.0191,-0.0195,-0.0206,-0.0205,-0.0206,-0.0208,-0.0206,-0.0221,-0.0225,-0.0237,-0.0254,-0.0259,-0.0256,-0.0265,-0.0306,-0.0306,-0.0306,-0.0275,-0.0273,-0.0271,0,0,0,0,0,-0.0174,-0.0167,-0.0172,-0.0175,-0.0189,-0.0206,-0.0208,-0.0212,-0.0208,-0.0205,-0.0214,-0.0224,-0.0257,-0.0256,-0.0262,-0.0259,-0.0306,-0.0306,-0.0306,-0.0276,-0.0274,-0.0271,0,0,0,0,0,0,-0.0151,-0.0166,-0.0172,-0.017,-0.0187,-0.0205,-0.0202,-0.0209,-0.0213,-0.0209,-0.0227,-0.0232,-0.0243,-0.0258,-0.0255,-0.0272,-0.0282,-0.0284,-0.0258,-0.0255,-0.0253,-0.0255,-0.0267,0,0,0,0,0,-0.0146,-0.0141,-0.0165,-0.0164,-0.0169,-0.0185,-0.019,-0.0197,-0.0209,-0.0208,-0.0217,-0.023,-0.025,-0.0257,-0.0273,-0.0285,-0.0305,-0.0286,-0.0284,-0.0282,-0.0288,-0.0327,-0.0329,-0.0306,-0.0306,-0.0306,0,0,-0.0138,-0.0146,-0.0144,-0.0159,-0.0167,-0.0172,-0.0185,-0.0192,-0.0192,-0.0215,-0.0206,-0.0225,-0.0252,-0.0261,-0.0268,-0.0271,-0.0294,-0.0282,-0.028,-0.0288,-0.0327,-0.0329,-0.0331,-0.0306,-0.0306,-0.0306,0,0,-0.0121,-0.0125,-0.0116,-0.0128,-0.0146,-0.0158,-0.0159,-0.0173,-0.0172,-0.0178,-0.0194,-0.0213,-0.0227,-0.025,-0.0265,-0.0265,-0.0283,-0.0264,-0.0254,-0.0291,-0.0293,-0.0295,-0.0298,-0.0301,-0.0261,-0.0261,-0.0261,0,-0.0109,-0.0104,-0.0119,-0.0117,-0.0122,-0.0149,-0.0145,-0.0154,-0.0169,-0.0173,-0.0168,-0.0205,-0.0224,-0.0255,-0.0252,-0.0261,-0.0274,-0.0259,-0.0288,-0.0291,-0.0294,-0.0297,-0.0301,-0.0259,-0.0259,-0.0259,-0.026,0,-0.0092,-0.0088,-0.0084,-0.0087,-0.0095,-0.0097,-0.0118,-0.012,-0.0122,-0.0136,-0.0155,-0.0184,-0.0208,-0.0216,-0.0233,-0.0265,-0.0262,-0.0282,-0.0294,-0.0295,-0.0297,-0.0302,-0.0257,-0.0257,-0.0258,-0.0258,0,0,-0.006,-0.0068,-0.0065,-0.0062,-0.0078,-0.0082,-0.0085,-0.01,-0.0102,-0.0118,-0.0123,-0.0162,-0.0182,-0.0201,-0.0229,-0.0261,-0.0284,-0.0276,-0.0279,-0.0276,-0.0341,-0.0343,-0.0349,-0.0309,-0.0311,-0.0312,-0.0324,0,-0.0039,-0.0027,-0.0037,-0.0026,-0.0022,-0.0045,-0.0044,-0.0063,-0.0076,-0.0087,-0.0131,-0.0147,-0.0176,-0.0186,-0.0225,-0.0269,-0.0298,-0.0277,-0.0343,-0.0344,-0.0346,-0.0356,-0.032,-0.033,-0.0329,-0.033,-0.033,0,-0.0018,-0.0012,0.0005,0.0005,0.0006,0.0007,0.0001,-0.0005,-0.0039,-0.0048,-0.0084,-0.0116,-0.0163,-0.0187,-0.0268,-0.0251,-0.0296,-0.0331,-0.0333,-0.0355,-0.0357,-0.0335,-0.0338,-0.0338,-0.0338,-0.0337,-0.0336,0,0.001,0.0019,0.0036,0.0035,0.0029,0.0034,0.003,0.0006,0.0007,-0.0029,-0.0028,-0.0095,-0.011,-0.0191,-0.0249,-0.0265,-0.0328,-0.036,-0.0405,-0.0404,-0.0398,-0.0395,-0.0431,-0.0431,-0.0431,-0.043,-0.043,0,0.0032,0.0045,0.0051,0.0057,0.0076,0.0064,0.0074,0.0059,0.0045,0.0058,-0.0007,-0.0004,-0.0114,-0.0156,-0.0235,-0.0316,-0.0316,-0.0407,-0.0418,-0.0382,-0.0378,-0.0412,-0.0409,-0.0431,-0.0431,-0.0431,-0.0431,0,0.0048,0.0054,0.0072,0.0081,0.0087,0.0098,0.0106,0.0114,0.0099,0.0116,0.011,0.0066,0.0014,-0.0084,-0.0192,-0.0278,-0.0368,-0.0397,-0.0328,-0.0332,-0.0424,-0.042,-0.0471,-0.0471,-0.0471,-0.0472,-0.0472,0,0.0052,0.0065,0.0092,0.0108,0.0111,0.0128,0.0142,0.0138,0.0157,0.0172,0.0192,0.0149,0.015,-0.0002,-0.0165,-0.0304,-0.0338,-0.0382,-0.0431,-0.0428,-0.0434,-0.0429,-0.0424,-0.0392,-0.0392,-0.0392,-0.0391,0,0.0056,0.0072,0.0088,0.0128,0.0152,0.0183,0.0212,0.0245,0.0263,0.0307,0.037,0.0375,0.0222,0.0097,-0.0115,-0.0222,-0.0364,-0.0383,-0.0401,-0.0393,-0.0358,-0.0362,-0.0359,-0.0388,-0.0389,-0.0389,-0.0389,-0.0389,0.006,0.0077,0.0111,0.0151,0.0185,0.0254,0.0311,0.0373,0.0457,0.0548,0.0516,0.0546,0.034,0.0093,-0.0095,-0.0315,-0.034,-0.0422,-0.0422,-0.0422,-0.0416,-0.0385,-0.0417,-0.0417,-0.0418,-0.0418,-0.0418,0,0.0069,0.0098,0.0132,0.0196,0.0259,0.0274,0.0372,0.0466,0.0622,0.0671,0.0737,0.058,0.0414,0.0184,-0.0131,-0.0337,-0.0353,-0.0399,-0.0372,-0.0374,-0.0376,-0.0367,-0.0354,-0.0355,-0.0355,-0.0355,0,0,0.0075,0.0115,0.0144,0.0255,0.0312,0.0433,0.0516,0.0673,0.0758,0.0853,0.0858,0.0786,0.0501,0.0286,0.0009,-0.0159,-0.0217,-0.0196,-0.0228,-0.0165,-0.0163,-0.0374,-0.0361,0,0,0,0,0]}],[{"header":{"parameterUnit":"m.s-1","parameterCategory":2,"la1":30.2991,"la2":30.254,"lo1":-89.0895,"lo2":-89.0444,"dy":0.0017,"dx":0.0017,"nx":28,"ny":28,"refTime":"2025-03-01T03:00:00:Z","depth":"4","parameterNumber":2,"parameterNumberName":"U-component_of_CURRENTS"},"data":[0,0,0,0,0,0,0,0,0,0,0,0,0,0,0,0,0,0,0,0,0,0,0,0,0,0,0,0,0,0,0,0,0,0,0,0,0,0,0,0,0,0,0,0,0,0,0,0,0,0,0,0,0,0,0,0,0,0,0.0578,0.0578,0,0.0594,0.0594,0.0594,0.0611,0.0612,0.0612,0.0613,0.0606,0.0606,0.0605,0,0,0,0,0,0,0,0,0,0,0,0,0,0.0541,0.0542,0.0578,0.0578,0.0579,0.0594,0.0594,0.0594,0.0611,0.0612,0.0612,0.0613,0.0607,0.0606,0.0605,0,0,0,0,0,0,0,0,0,0,0,0,0,0.0555,0.0542,0.0578,0.0591,0.0592,0.0594,0.0594,0.0594,0.0611,0.0612,0.0613,0.0613,0.0607,0.0606,0.0605,0.0587,0,0,0.0602,0.0602,0,0,0,0,0,0,0,0,0.0554,0.0556,0.0588,0.059,0.0591,0.0603,0.0579,0.0592,0.0611,0.0602,0.0613,0.0613,0.0604,0.0603,0.0603,0.0587,0.0587,0.0602,0.0602,0.0602,0.0601,0,0,0,0,0,0,0,0.0553,0.0556,0.0582,0.0589,0.0591,0.0589,0.0591,0.0581,0.0597,0.0603,0.0604,0.0609,0.0605,0.0603,0.0602,0.0586,0.0602,0.0602,0.0601,0.0601,0.0609,0.061,0,0,0,0,0,0,0.0556,0.0555,0.0582,0.0583,0.0576,0.0589,0.0592,0.0597,0.0598,0.0599,0.0609,0.061,0.0604,0.0603,0.0602,0.0628,0.0602,0.0601,0.06,0.0609,0.0609,0.061,0,0,0,0,0,0,0.0555,0.0558,0.0581,0.0571,0.0574,0.0589,0.0595,0.0597,0.0612,0.0603,0.0604,0.0624,0.0605,0.0604,0.0614,0.0626,0.06,0.06,0.0608,0.0609,0.061,0.065,0,0,0,0,0,0,0.0554,0.0558,0.0567,0.0571,0.0575,0.0593,0.0595,0.0597,0.0614,0.0616,0.0615,0.0615,0.0605,0.0615,0.0613,0.0625,0.0599,0.0607,0.0608,0.061,0.0648,0.0652,0.0656,0,0,0,0,0,0.0553,0.0561,0.0567,0.0571,0.0585,0.0594,0.0595,0.0607,0.0614,0.0622,0.0628,0.0616,0.0622,0.0615,0.0612,0.0624,0.0606,0.0608,0.0609,0.0646,0.0651,0.0656,0,0,0,0,0,0,0.0549,0.0564,0.0571,0.0583,0.0594,0.0598,0.0608,0.0615,0.0625,0.0632,0.0623,0.0623,0.0636,0.0625,0.0618,0.0631,0.0612,0.0614,0.0641,0.0646,0.065,0.0659,0.0598,0,0,0,0,0,0.0553,0.0564,0.0575,0.0587,0.0594,0.0604,0.0611,0.062,0.0628,0.0634,0.0635,0.0636,0.0636,0.0639,0.0635,0.0641,0.065,0.0648,0.0652,0.0656,0.0662,0.0687,0.0695,0.0616,0.0616,0.0616,0,0,0.0554,0.0565,0.0571,0.0587,0.0597,0.0607,0.061,0.0627,0.0638,0.063,0.0649,0.065,0.0641,0.0652,0.0656,0.0647,0.0686,0.0658,0.0661,0.0665,0.069,0.0698,0.0705,0.0617,0.0617,0.0616,0,0,0.0557,0.0573,0.0583,0.0593,0.0614,0.062,0.0629,0.0644,0.0656,0.0673,0.067,0.0684,0.0683,0.0683,0.0681,0.0705,0.0707,0.0705,0.0734,0.0759,0.0766,0.0772,0.0808,0.0817,0.0708,0.0708,0.0708,0,0.0559,0.0572,0.0587,0.0599,0.0609,0.0628,0.0638,0.0651,0.0668,0.0682,0.0686,0.0706,0.0698,0.0712,0.0724,0.0715,0.0736,0.0715,0.0765,0.0772,0.0777,0.0812,0.0822,0.071,0.071,0.071,0.071,0,0.0566,0.0581,0.0589,0.061,0.0622,0.0637,0.0656,0.0677,0.0697,0.0711,0.0741,0.0742,0.0759,0.0755,0.0747,0.0781,0.0787,0.0768,0.0754,0.0788,0.0823,0.0832,0.0713,0.0713,0.0712,0.0712,0,0,0.0555,0.0586,0.059,0.0602,0.0631,0.0641,0.0668,0.0695,0.0722,0.0748,0.0784,0.0789,0.0809,0.0808,0.0804,0.0822,0.0881,0.0818,0.0819,0.0857,0.0956,0.0896,0.09,0.0876,0.0878,0.0879,0.097,0,0.0556,0.0574,0.0593,0.0615,0.0624,0.0655,0.0678,0.0709,0.0741,0.0782,0.0804,0.0836,0.0823,0.0845,0.0863,0.0878,0.0905,0.0859,0.0915,0.0917,0.0861,0.0907,0.0883,0.0977,0.0979,0.098,0.0982,0,0.0553,0.0567,0.0583,0.0619,0.0628,0.065,0.0698,0.0724,0.0784,0.081,0.0857,0.0885,0.0932,0.091,0.097,0.0947,0.096,0.0965,0.0968,0.0902,0.0872,0.0932,0.0998,0.0997,0.0995,0.0994,0.0993,0,0.0526,0.0561,0.0572,0.0583,0.0625,0.0651,0.0685,0.0739,0.0776,0.0845,0.0892,0.094,0.099,0.1012,0.1039,0.1019,0.1098,0.1068,0.1026,0.1023,0.1031,0.1024,0.1106,0.1106,0.1106,0.1106,0.1105,0,0.051,0.0522,0.0567,0.0572,0.0596,0.0645,0.0687,0.0725,0.0808,0.0847,0.0917,0.0964,0.102,0.1073,0.1074,0.1088,0.1134,0.1046,0.1043,0.1048,0.1041,0.1039,0.103,0.1109,0.1108,0.1108,0.1107,0,0.0468,0.0499,0.0511,0.056,0.0579,0.0601,0.0686,0.0721,0.081,0.0872,0.0908,0.1018,0.1084,0.1128,0.1173,0.1138,0.1146,0.1133,0.1161,0.1156,0.105,0.1042,0.1109,0.1107,0.1106,0.1105,0.1104,0,0.0448,0.0448,0.0484,0.0497,0.0523,0.0571,0.0601,0.0697,0.0737,0.0883,0.0908,0.1033,0.1081,0.1129,0.1159,0.118,0.115,0.1156,0.1078,0.106,0.1051,0.1045,0.1039,0.1102,0.1102,0.1102,0.1102,0,0.0397,0.041,0.0417,0.0439,0.0471,0.0501,0.0563,0.0597,0.0705,0.0798,0.0899,0.0968,0.1046,0.1096,0.1129,0.1126,0.1153,0.1144,0.1145,0.1071,0.1053,0.1044,0.1039,0.1098,0.1098,0.1099,0.1099,0,0.0357,0.0344,0.0357,0.0373,0.0412,0.0437,0.0473,0.0546,0.0612,0.0779,0.0802,0.0933,0.1029,0.1069,0.1088,0.1098,0.1072,0.1023,0.103,0.1035,0.0964,0.0927,0.0944,0,0,0,0,0,0.0316,0.0294,0.0298,0.0311,0.0353,0.0378,0.0449,0.0497,0.0601,0.0649,0.0735,0.0802,0.0891,0.0965,0.096,0.1033,0.1055,0.102,0.0995,0.1075,0.108,0.1001,0,0,0,0,0,0,0.0286,0.0277,0.0268,0.0264,0.0275,0.031,0.0359,0.0427,0.0468,0.0587,0.0648,0.0741,0.084,0.0884,0.0941,0.0957,0.0922,0.1096,0.1093,0.1073,0.1077,0.1081,0.1001,0,0,0,0,0]},{"header":{"parameterUnit":"m.s-1","parameterCategory":2,"la1":30.2991,"la2":30.254,"lo1":-89.0895,"lo2":-89.0444,"dy":0.0017,"dx":0.0017,"nx":28,"ny":28,"refTime":"2025-03-01T03:00:00:Z","depth":"4","parameterNumber":3,"parameterNumberName":"V-component_of_CURRENTS"},"data":[0,0,0,0,0,0,0,0,0,0,0,0,0,0,0,0,0,0,0,0,0,0,0,0,0,0,0,0,0,0,0,0,0,0,0,0,0,0,0,0,0,0,0,0,0,0,0,0,0,0,0,0,0,0,0,0,0,0,-0.0066,-0.0066,0,-0.0077,-0.0077,-0.0077,-0.0082,-0.0082,-0.0082,-0.0082,-0.0101,-0.0102,-0.0102,0,0,0,0,0,0,0,0,0,0,0,0,0,-0.0059,-0.0059,-0.0066,-0.0066,-0.0066,-0.0077,-0.0077,-0.0077,-0.0082,-0.0082,-0.0082,-0.0082,-0.0101,-0.0102,-0.0102,0,0,0,0,0,0,0,0,0,0,0,0,0,-0.0064,-0.0059,-0.0066,-0.007,-0.0071,-0.0077,-0.0077,-0.0077,-0.0082,-0.0082,-0.0082,-0.0082,-0.0101,-0.0102,-0.0102,-0.0105,0,0,-0.0105,-0.0105,0,0,0,0,0,0,0,0,-0.0064,-0.0064,-0.007,-0.007,-0.0071,-0.0079,-0.0082,-0.0087,-0.0082,-0.0077,-0.0082,-0.0082,-0.0095,-0.0096,-0.0097,-0.0106,-0.0107,-0.0105,-0.0105,-0.0105,-0.0106,0,0,0,0,0,0,0,-0.0064,-0.0064,-0.007,-0.007,-0.0071,-0.0075,-0.0076,-0.0083,-0.0085,-0.0077,-0.0078,-0.008,-0.0095,-0.0096,-0.0097,-0.0107,-0.0105,-0.0105,-0.0106,-0.0106,-0.0135,-0.0136,0,0,0,0,0,0,-0.0063,-0.0064,-0.0069,-0.007,-0.0068,-0.0076,-0.0076,-0.0076,-0.0085,-0.0086,-0.008,-0.008,-0.0095,-0.0097,-0.0098,-0.0106,-0.0105,-0.0106,-0.0106,-0.0135,-0.0135,-0.0136,0,0,0,0,0,0,-0.0063,-0.0063,-0.0069,-0.0068,-0.0069,-0.0076,-0.0075,-0.0076,-0.008,-0.0087,-0.0089,-0.0083,-0.0095,-0.0097,-0.0106,-0.0107,-0.0106,-0.0107,-0.0135,-0.0135,-0.0136,-0.012,0,0,0,0,0,0,-0.0062,-0.0063,-0.0064,-0.0068,-0.0069,-0.0072,-0.0075,-0.0076,-0.0081,-0.0082,-0.009,-0.0092,-0.0095,-0.0105,-0.0107,-0.0108,-0.0108,-0.0134,-0.0135,-0.0135,-0.012,-0.012,-0.012,0,0,0,0,0,-0.0062,-0.0061,-0.0064,-0.0064,-0.0069,-0.0072,-0.0073,-0.0078,-0.0081,-0.0082,-0.0089,-0.0092,-0.0111,-0.0105,-0.0108,-0.0109,-0.0134,-0.0135,-0.0135,-0.012,-0.012,-0.012,0,0,0,0,0,0,-0.0059,-0.0062,-0.0064,-0.0065,-0.0069,-0.0074,-0.0076,-0.008,-0.0085,-0.0087,-0.0094,-0.0096,-0.0105,-0.0112,-0.0106,-0.0121,-0.0124,-0.0125,-0.0112,-0.0112,-0.0112,-0.0095,-0.0108,0,0,0,0,0,-0.0059,-0.0059,-0.0063,-0.0064,-0.0066,-0.0072,-0.0075,-0.0078,-0.0083,-0.0086,-0.0093,-0.0102,-0.011,-0.0114,-0.0122,-0.0129,-0.0136,-0.0133,-0.0133,-0.0133,-0.0122,-0.0131,-0.013,-0.0138,-0.0138,-0.0138,0,0,-0.0058,-0.006,-0.006,-0.0064,-0.0067,-0.0062,-0.0074,-0.0078,-0.0072,-0.0087,-0.0087,-0.0102,-0.0113,-0.0119,-0.0124,-0.0124,-0.0138,-0.0134,-0.0133,-0.0122,-0.0131,-0.013,-0.0129,-0.0139,-0.0139,-0.0139,0,0,-0.0051,-0.0058,-0.0053,-0.0054,-0.0059,-0.0061,-0.0063,-0.0069,-0.0072,-0.0077,-0.0086,-0.0101,-0.0113,-0.0118,-0.0123,-0.0128,-0.0139,-0.0137,-0.012,-0.0129,-0.0128,-0.0127,-0.0151,-0.0152,-0.0135,-0.0135,-0.0135,0,-0.005,-0.004,-0.0053,-0.0046,-0.0039,-0.0059,-0.0044,-0.0052,-0.0061,-0.0058,-0.0075,-0.0093,-0.011,-0.0107,-0.0115,-0.0126,-0.0137,-0.0118,-0.0127,-0.0126,-0.0126,-0.015,-0.0152,-0.0135,-0.0135,-0.0135,-0.0135,0,-0.0035,-0.0026,-0.0024,-0.0017,-0.0015,-0.0009,-0.0016,-0.0019,-0.003,-0.0035,-0.0044,-0.0072,-0.0078,-0.0095,-0.0108,-0.0111,-0.0124,-0.0127,-0.0124,-0.0124,-0.015,-0.0152,-0.0134,-0.0134,-0.0134,-0.0134,0,0,-0.0029,-0.0014,-0.0012,0.0007,0.0005,0.0014,0.0017,0.0025,0.0038,0.0006,0.0018,-0.0017,-0.0037,-0.0044,-0.0068,-0.0083,-0.0105,-0.0103,-0.0104,-0.012,-0.0135,-0.0155,-0.0159,-0.0108,-0.0108,-0.0107,-0.0161,0,-0.0009,0.0021,0.0021,0.0055,0.0074,0.0066,0.008,0.008,0.0069,0.007,0.0032,0.0027,-0.0016,-0.0023,-0.0046,-0.0088,-0.0107,-0.0091,-0.0138,-0.014,-0.0151,-0.016,-0.0107,-0.0163,-0.0163,-0.0163,-0.0164,0,0.0008,0.0032,0.007,0.0111,0.0119,0.0134,0.0162,0.017,0.016,0.0149,0.0126,0.0095,0.0058,0.0024,-0.0045,-0.0034,-0.0081,-0.0117,-0.012,-0.0139,-0.0162,-0.016,-0.0167,-0.0167,-0.0167,-0.0166,-0.0166,0,0.003,0.0068,0.0107,0.0118,0.0153,0.0173,0.019,0.0195,0.0214,0.0196,0.0196,0.015,0.012,0.0061,-0.0038,-0.0036,-0.0117,-0.0121,-0.0181,-0.0184,-0.0156,-0.0156,-0.0157,-0.0157,-0.0156,-0.0156,-0.0156,0,0.0055,0.0084,0.0123,0.0144,0.0199,0.0209,0.0258,0.0261,0.0274,0.029,0.0238,0.0225,0.0129,0.0062,-0.0018,-0.0117,-0.0104,-0.0177,-0.0194,-0.0152,-0.0151,-0.0158,-0.0158,-0.0158,-0.0158,-0.0157,-0.0157,0,0.0066,0.0089,0.0138,0.0189,0.0209,0.0246,0.0303,0.0336,0.0336,0.035,0.0344,0.0281,0.0182,0.0079,-0.0031,-0.0092,-0.0179,-0.0214,-0.0175,-0.019,-0.0244,-0.0243,-0.0275,-0.0276,-0.0277,-0.0278,-0.0278,0,0.0074,0.0101,0.017,0.0205,0.0228,0.0286,0.0329,0.036,0.0385,0.0375,0.0377,0.0295,0.0231,0.0065,-0.0048,-0.0197,-0.0217,-0.0255,-0.0237,-0.0241,-0.0254,-0.0251,-0.0248,-0.028,-0.028,-0.028,-0.028,0,0.0094,0.0115,0.0157,0.0228,0.0281,0.0347,0.0399,0.0423,0.0444,0.0447,0.0403,0.0312,0.0198,0.006,-0.0063,-0.0168,-0.0224,-0.0264,-0.0262,-0.0246,-0.0247,-0.0259,-0.0255,-0.0283,-0.0283,-0.0282,-0.0282,0,0.0105,0.0136,0.019,0.0252,0.032,0.038,0.0412,0.0439,0.0469,0.045,0.0428,0.0308,0.0239,0.0073,-0.0041,-0.015,-0.0169,-0.0183,-0.0186,-0.0184,-0.0145,-0.0133,-0.0146,0,0,0,0,0,0.0118,0.0153,0.0211,0.0282,0.0347,0.0387,0.0449,0.0472,0.0484,0.0462,0.045,0.034,0.0167,0.0092,-0.002,-0.0064,-0.0194,-0.0197,-0.0213,-0.03,-0.0296,-0.0268,0,0,0,0,0,0,0.0129,0.0179,0.021,0.0292,0.0339,0.0416,0.0455,0.0465,0.0454,0.0443,0.0352,0.0317,0.0145,0.0223,-0.0024,-0.0058,-0.008,-0.0276,-0.0278,-0.0302,-0.0299,-0.0296,-0.0266,0,0,0,0,0]}]]